Location: Clover
(42.5131°N, 114.6874°W)
Time: 14:12:26
(UTC+00:00)

Vanguard 2 Rocket - All Passes

Search period start: 02 November 2024 00:00
Search period end: 12 November 2024 00:00
Orbit: 553 x 3297 km, 32.9° (Epoch: 01 November)

Date Brightness Start Highest point End Pass type
(mag) Time Alt. Az. Time Alt. Az. Time Alt. Az.
02 Nov - 00:16:55 10° W 00:26:03 24° SW 00:32:17 10° S daylight
02 Nov - 14:15:12 10° SSE 14:21:57 13° SE 14:28:50 10° ESE daylight
02 Nov - 16:19:55 10° SSW 16:36:35 36° SSE 16:51:48 10° E daylight
02 Nov - 18:33:36 10° WSW 18:52:47 55° SSE 19:07:02 10° E daylight
02 Nov - 20:50:57 10° W 21:08:48 57° S 21:19:58 10° ESE daylight
02 Nov - 23:09:51 10° W 23:22:43 36° SSW 23:30:46 10° SSE daylight
03 Nov - 15:16:58 10° S 15:31:25 28° SE 15:45:51 10° E daylight
03 Nov - 17:28:25 10° SW 17:47:09 50° SSE 18:02:47 10° E daylight
03 Nov - 19:44:32 10° WSW 20:03:40 60° S 20:16:39 10° ESE daylight
03 Nov - 22:02:58 10° W 22:18:46 47° SSW 22:28:31 10° SE daylight
04 Nov - 00:23:18 10° W 00:31:04 19° SW 00:36:48 10° S daylight
04 Nov - 14:15:35 10° S 14:26:37 19° SE 14:38:17 10° E daylight
04 Nov - 16:24:02 10° SW 16:41:32 43° SSE 16:57:56 10° E daylight
04 Nov - 18:38:34 10° WSW 18:58:07 59° S 19:12:53 10° E daylight
04 Nov - 20:56:13 10° W 21:14:12 55° SSW 21:25:42 10° ESE daylight
04 Nov - 23:15:33 10° W 23:27:48 30° SW 23:35:53 10° SSE daylight
05 Nov - 13:18:56 10° SE 13:22:16 11° SE 13:25:41 10° ESE visible
05 Nov - 15:20:34 10° SSW 15:36:10 35° SE 15:52:18 10° E daylight
05 Nov - 17:33:12 10° SW 17:52:19 56° SSE 18:08:37 10° E daylight
05 Nov - 19:49:45 10° W 20:09:03 60° S 20:22:25 10° ESE daylight
05 Nov - 22:08:24 10° W 22:23:57 41° SSW 22:33:55 10° SE daylight
06 Nov - 00:30:37 10° WSW 00:35:53 13° SW 00:40:13 10° SSW daylight
06 Nov - 14:18:13 10° S 14:31:13 26° SE 14:45:33 10° E daylight
06 Nov - 16:28:35 10° SW 16:46:30 50° SSE 17:03:48 10° E daylight
06 Nov - 18:43:42 10° WSW 19:03:25 62° S 19:18:38 10° ESE daylight
06 Nov - 21:01:33 10° W 21:19:27 51° SSW 21:31:16 10° SE daylight
06 Nov - 23:21:33 10° W 23:32:41 24° SW 23:40:33 10° S daylight
07 Nov - 13:17:42 10° SSE 13:26:46 17° SE 13:36:52 10° E visible
07 Nov - 15:24:45 10° SSW 15:40:57 42° SSE 15:58:18 10° E daylight
07 Nov - 17:38:13 10° WSW 17:57:29 60° S 18:14:20 10° E daylight
07 Nov - 19:55:02 10° W 20:14:20 58° SSW 20:28:03 10° ESE daylight
07 Nov - 22:13:57 10° W 22:28:56 35° SW 22:39:00 10° SSE daylight
08 Nov - 14:21:51 10° SSW 14:35:49 32° SE 14:51:57 10° E daylight
08 Nov - 16:33:25 10° SW 16:51:31 55° SSE 17:09:30 10° E daylight
08 Nov - 18:48:57 10° WSW 19:08:40 62° S 19:24:17 10° ESE daylight
08 Nov - 21:06:55 10° W 21:24:32 46° SSW 21:36:35 10° SE daylight
08 Nov - 23:28:05 10° W 23:37:22 18° SW 23:44:28 10° S daylight
09 Nov - 13:20:09 10° S 13:31:13 23° SE 13:44:23 10° E visible
09 Nov - 15:29:21 10° SW 15:45:46 48° SSE 16:04:02 10° E daylight
09 Nov - 17:43:25 10° WSW 18:02:40 63° S 18:19:57 10° ESE daylight
09 Nov - 20:00:22 10° W 20:19:28 55° SSW 20:33:29 10° SE daylight
09 Nov - 22:19:43 10° W 22:33:42 29° SW 22:43:41 10° SSE daylight
10 Nov - 12:20:55 10° SSE 12:27:10 13° SE 12:34:14 10° ESE visible
10 Nov - 14:26:05 10° SSW 14:40:27 39° SE 14:57:53 10° E daylight
10 Nov - 16:38:30 10° WSW 16:56:34 60° SSE 17:15:03 10° E daylight
10 Nov - 18:54:16 10° W 19:13:50 61° S 19:29:46 10° ESE daylight
10 Nov - 21:12:24 10° W 21:29:24 40° SSW 21:41:36 10° SSE daylight
10 Nov - 23:35:58 10° WSW 23:41:53 13° SW 23:46:57 10° SSW daylight
11 Nov - 13:23:45 10° S 13:35:43 29° SE 13:50:50 10° E visible
11 Nov - 15:34:17 10° SW 15:50:40 54° SSE 16:09:35 10° E daylight
11 Nov - 17:48:43 10° WSW 18:07:49 63° S 18:25:26 10° ESE daylight
11 Nov - 20:05:44 10° W 20:24:27 50° SSW 20:38:41 10° SE daylight
11 Nov - 22:25:54 10° W 22:38:17 23° SW 22:47:44 10° S daylight
